Location: Cronhütte
(48.9135°N, 9.6869°E)
Time: 15:51:42
(UTC+00:00)

FORMOSAT 3E - Pass Details

Date: 06 May 2025
Orbit: 742 x 834 km, 72.0° (Epoch: 13 May)

Event Time Altitude Azimuth Distance (km) Brightness Sun altitude
Rises 22:13:06 0° 333° (NNW) 3,201 12.6 -22.7°
Reaches altitude 10° 22:15:27 10° 335° (NNW) 2,280 11.5 -22.8°
Maximum altitude 22:20:39 83° 64° (ENE) 773 7.9 -23.1°
Enters shadow 22:21:40 58° 141° (SE) 884 7.9 -23.1°
